Weather History for Denver, CO

Change the Weather History Date:

Friday, February 8, 2013

  Actual Average (KDEN) Record (KDEN)
Temperature  
Mean Temperature 44 °F 31 °F  
Max Temperature 57 °F 45 °F 75 °F (1954)
Min Temperature 30 °F 18 °F -25 °F (1936)
Degree Days  
Heating Degree Days 22 34  
Month to date heating degree days 272  
Since 1 July heating degree days 3803  
Cooling Degree Days 0 0  
Month to date cooling degree days 0  
Year to date cooling degree days 0  
Moisture  
Dew Point 20 °F    
Average Humidity 51    
Maximum Humidity 69    
Minimum Humidity 20    
Precipitation  
Precipitation 0.00 in 0.01 in 0.55 in (1942)
Month to date precipitation 0.10  
Year to date precipitation 0.51  
Snow  
Snow 0.00 in - - ()
Month to date snowfall  
Since 1 July snowfall  
Snow Depth -    
Sea Level Pressure  
Sea Level Pressure 29.90 in    
Wind  
Wind Speed 16 mph (South)    
Max Wind Speed 24 mph    
Max Gust Speed 30 mph    
Visibility 10 miles    
Events      
T = Trace of Precipitation, MM = Missing Value Source: NWS Daily Summary

Daily Weather History Graph

Daily Weather History Graph

Search for Another Location

Airport:

Trip Planner

Search our weather history database for the weather conditions in past years. The results will help you decide how hot, cold, wet, or windy it might be!

Date:

Astronomy

Feb. 08, 2013 Rise Set
Actual Time 6:58 AM MST 5:26 PM MST
Civil Twilight 6:30 AM MST 5:54 PM MST
Nautical Twilight 5:58 AM MST 6:26 PM MST
Astronomical Twilight 5:27 AM MST 6:58 PM MST
Moon 5:29 AM MST (2/8) 4:02 PM MST (2/8)
Length of Visible Light 11h 23m
Length of Day
10h 27m
Waning Crescent, 3% of the Moon is Illuminated
Feb 8
Waning Crescent
Feb 10
New
Feb 17
First Quarter
Feb 25
Full
Mar 4
Last Quarter

Hourly Weather History & Observations

Time (MST) Temp. Windchill Dew Point Humidity Pressure Visibility Wind Dir Wind Speed Gust Speed Precip Events Conditions
12:07 AM 35.6 °F 24.5 °F 23.0 °F 60% 30.00 in 10.0 mi SSW 20.7 mph 25.3 mph N/A   Clear
12:27 AM 35.6 °F 24.2 °F 23.0 °F 60% 30.00 in 10.0 mi SSW 21.9 mph 26.5 mph N/A   Clear
12:47 AM 35.6 °F 25.2 °F 23.0 °F 60% 29.99 in 10.0 mi SSW 18.4 mph 21.9 mph N/A   Clear
1:07 AM 35.6 °F 24.0 °F 23.0 °F 60% 29.99 in 10.0 mi South 23.0 mph - N/A   Clear
1:27 AM 37.4 °F 26.9 °F 23.0 °F 56% 29.99 in 10.0 mi South 20.7 mph 29.9 mph N/A   Clear
1:47 AM 35.6 °F 25.2 °F 23.0 °F 60% 29.99 in 10.0 mi South 18.4 mph 24.2 mph N/A   Clear
2:06 AM 35.6 °F 23.7 °F 21.2 °F 56% 29.98 in 10.0 mi South 24.2 mph 29.9 mph N/A   Clear
2:47 AM 33.8 °F 24.3 °F 21.2 °F 60% 29.97 in 10.0 mi South 13.8 mph - N/A   Clear
3:06 AM 35.6 °F 26.6 °F 21.2 °F 56% 29.96 in 10.0 mi South 13.8 mph - N/A   Clear
3:27 AM 32.0 °F 23.6 °F 21.2 °F 64% 29.95 in 10.0 mi SSE 10.4 mph - N/A   Clear
3:47 AM 30.2 °F 19.8 °F 21.2 °F 69% 29.94 in 10.0 mi SE 13.8 mph - N/A   Clear
4:07 AM 33.8 °F 23.9 °F 21.2 °F 60% 29.93 in 10.0 mi South 15.0 mph 18.4 mph N/A   Clear
4:27 AM 32.0 °F 23.6 °F 19.4 °F 60% 29.94 in 10.0 mi SSE 10.4 mph - N/A   Clear
4:47 AM 32.0 °F 23.6 °F 21.2 °F 64% 29.94 in 10.0 mi South 10.4 mph - N/A   Clear
5:07 AM 32.0 °F 24.8 °F 19.4 °F 60% 29.93 in 10.0 mi South 8.1 mph - N/A   Clear
5:27 AM 32.0 °F 21.6 °F 19.4 °F 60% 29.92 in 10.0 mi South 15.0 mph - N/A   Clear
5:47 AM 32.0 °F 24.2 °F 19.4 °F 60% 29.92 in 10.0 mi SSE 9.2 mph - N/A   Clear
6:07 AM 35.6 °F 27.1 °F 19.4 °F 52% 29.91 in 10.0 mi South 12.7 mph - N/A   Clear
6:26 AM 37.4 °F 27.8 °F 17.6 °F 45% 29.91 in 10.0 mi SSW 17.3 mph - N/A   Clear
6:47 AM 35.6 °F 24.8 °F 17.6 °F 48% 29.91 in 10.0 mi SSW 19.6 mph - N/A   Clear
7:05 AM 33.8 °F 23.5 °F 19.4 °F 56% 29.91 in 10.0 mi South 16.1 mph - N/A   Clear
7:50 AM 39.2 °F 32.5 °F 17.6 °F 42% 29.93 in 50.0 mi South 10.4 mph - N/A   Mostly Cloudy
8:50 AM 30.2 °F 26.7 °F 19.4 °F 64% 29.91 in 50.0 mi NNW 3.5 mph - N/A   Mostly Cloudy
10:50 AM 37.4 °F 34.9 °F 21.2 °F 52% 29.89 in 50.0 mi West 3.5 mph - N/A   Mostly Cloudy
11:47 AM 41.0 °F - 15.8 °F 36% 29.86 in 50.0 mi Calm Calm - N/A   Mostly Cloudy
12:55 PM 50.0 °F - 21.2 °F 32% 29.81 in 50.0 mi North 5.8 mph - N/A   Scattered Clouds
1:50 PM 57.2 °F - 15.8 °F 20% 29.77 in 50.0 mi SSE 9.2 mph - N/A   Partly Cloudy
2:50 PM 55.4 °F - 21.2 °F 26% 29.73 in 50.0 mi ENE 5.8 mph - N/A   Partly Cloudy
3:48 PM 55.4 °F - 19.4 °F 25% 29.72 in 50.0 mi South 13.8 mph 20.7 mph N/A   Partly Cloudy
4:52 PM 53.6 °F - 19.4 °F 26% 29.70 in 50.0 mi SSE 10.4 mph - N/A   Partly Cloudy
5:50 PM 48.2 °F - 19.4 °F 32% 29.71 in 10.0 mi West 6.9 mph - N/A   Partly Cloudy
6:50 PM 35.6 °F 30.7 °F 19.4 °F 52% 29.71 in 10.0 mi West 5.8 mph - N/A   Scattered Clouds